Location: Krasnoyarskiy Pitomnik
(51.1333°N, 71.6167°E)
Time: 06:26:33
(UTC+00:00)

Transit 4A - Pass Details

Date: 17 April 2024
Orbit: 871 x 971 km, 66.8° (Epoch: 28 May)

Event Time Altitude Azimuth Distance (km) Brightness Sun altitude
Rises 14:51:29 0° 318° (NW) 3,481 12.4 -6.4°
Reaches altitude 10° 14:54:26 10° 331° (NNW) 2,534 11.1 -6.8°
Maximum altitude 14:59:15 26° 27° (NNE) 1,659 9.3 -7.5°
Drops below altitude 10° 15:04:05 10° 83° (E) 2,529 9.7 -8.1°
Enters shadow 15:05:14 - 89° (E) 2,888 9.9 -8.3°
